Hailey, ID

2:09 PM MST on December 11, 2017 (GMT -0700)
Friedman Memorial

Weather History for KSUN - June, 2014

Change the Weather History Date:

Monday, June 2, 2014

  Actual Average Record
Temperature  
Mean Temperature 58 °F -  
Max Temperature 75 °F 68 °F 80 °F (2007)
Min Temperature 41 °F 42 °F 35 °F (2011)
Degree Days  
Heating Degree Days 7    
Growing Degree Days 8 (Base 50)    
Moisture  
Dew Point 36 °F    
Average Humidity 53    
Maximum Humidity 81    
Minimum Humidity 25    
Precipitation  
Precipitation 0.00 in - - ()
Sea Level Pressure  
Sea Level Pressure 30.02 in    
Wind  
Wind Speed 7 mph (NW)    
Max Wind Speed 21 mph    
Max Gust Speed 29 mph    
Visibility 10 miles    
Events      
Averages and records for this station are not official NWS values.
T = Trace of Precipitation, MM = Missing Value Source: NWS Daily Summary

Daily Weather History Graph

Daily Weather History Graph

Search for Another Location

Airport or City:

Trip Planner

Search our weather history database for the weather conditions in past years. The results will help you decide how hot, cold, wet, or windy it might be!

Date:

Astronomy

Jun. 02, 2014 Rise Set
Actual Time 5:58 AM MDT 9:12 PM MDT
Civil Twilight 5:23 AM MDT 9:47 PM MDT
Nautical Twilight 4:38 AM MDT 10:32 PM MDT
Astronomical Twilight 3:43 AM MDT 11:28 PM MDT
Moon 10:34 AM MDT (6/2) 12:04 AM MDT (6/2)
Length of Visible Light 16h 23m
Length of Day
15h 13m
Waxing Crescent, 22% of the Moon is Illuminated
Jun 2
Waxing Crescent
Jun 5
First Quarter
Jun 12
Full
Jun 19
Last Quarter
Jun 27
New

Hourly Weather History & Observations

Time (MDT) Temp. Windchill Dew Point Humidity Pressure Visibility Wind Dir Wind Speed Gust Speed Precip Events Conditions
12:15 AM 53.6 °F - 35.6 °F 51% 30.06 in 10.0 mi NNW 4.6 mph - N/A   Clear
12:35 AM 50.0 °F - 35.6 °F 58% 30.05 in 10.0 mi NW 5.8 mph - N/A   Clear
12:55 AM 51.8 °F - 35.6 °F 54% 30.06 in 10.0 mi NW 5.8 mph - N/A   Clear
1:15 AM 48.2 °F - 37.4 °F 66% 30.06 in 10.0 mi WNW 8.1 mph - N/A   Clear
1:35 AM 50.0 °F - 35.6 °F 58% 30.06 in 10.0 mi NW 5.8 mph - N/A   Clear
1:55 AM 48.2 °F - 35.6 °F 62% 30.06 in 10.0 mi NW 6.9 mph - N/A   Clear
2:15 AM 48.2 °F - 35.6 °F 62% 30.07 in 10.0 mi NNW 5.8 mph - N/A   Clear
2:35 AM 44.6 °F 41.4 °F 35.6 °F 71% 30.07 in 10.0 mi WNW 5.8 mph - N/A   Clear
2:55 AM 46.4 °F 43.5 °F 35.6 °F 66% 30.07 in 10.0 mi NW 5.8 mph - N/A   Clear
3:15 AM 44.6 °F 40.2 °F 35.6 °F 71% 30.07 in 10.0 mi NW 8.1 mph - N/A   Clear
3:35 AM 44.6 °F 40.2 °F 35.6 °F 71% 30.08 in 10.0 mi NW 8.1 mph - N/A   Clear
3:55 AM 42.8 °F 38.6 °F 35.6 °F 76% 30.08 in 10.0 mi WNW 6.9 mph - N/A   Clear
4:15 AM 44.6 °F 40.7 °F 35.6 °F 71% 30.08 in 10.0 mi NW 6.9 mph - N/A   Clear
4:35 AM 42.8 °F 39.3 °F 35.6 °F 76% 30.08 in 10.0 mi NW 5.8 mph - N/A   Clear
4:55 AM 42.8 °F 38.6 °F 35.6 °F 76% 30.08 in 10.0 mi NW 6.9 mph - N/A   Clear
5:15 AM 42.8 °F 38.0 °F 35.6 °F 76% 30.08 in 10.0 mi NW 8.1 mph - N/A   Clear
5:35 AM 42.8 °F 38.6 °F 35.6 °F 76% 30.08 in 10.0 mi NW 6.9 mph - N/A   Clear
5:55 AM 42.8 °F 38.0 °F 35.6 °F 76% 30.09 in 10.0 mi NW 8.1 mph - N/A   Clear
6:15 AM 42.8 °F 38.0 °F 35.6 °F 76% 30.09 in 10.0 mi NW 8.1 mph - N/A   Clear
6:35 AM 41.0 °F 35.2 °F 35.6 °F 81% 30.09 in 10.0 mi NW 9.2 mph - N/A   Clear
6:47 AM 42.8 °F 37.5 °F 35.6 °F 76% 30.10 in 10.0 mi WNW 9.2 mph - N/A   Clear
7:47 AM 48.2 °F - 35.6 °F 62% 30.10 in 10.0 mi NW 9.2 mph - N/A   Clear
9:47 AM 60.8 °F - 35.6 °F 39% 30.08 in 10.0 mi NNW 4.6 mph - N/A   Clear
10:55 AM 66.2 °F - 32.0 °F 28% 30.06 in 10.0 mi Calm Calm - N/A   Partly Cloudy
12:47 PM 69.8 °F - 39.2 °F 33% 30.04 in 10.0 mi ESE 8.1 mph - N/A   Partly Cloudy
1:47 PM 71.6 °F - 37.4 °F 29% 30.01 in 10.0 mi SSE 5.8 mph - N/A   Partly Cloudy
2:50 PM 73.4 °F - 39.2 °F 29% 29.98 in 10.0 mi ESE 11.5 mph - N/A   Partly Cloudy
3:50 PM 73.4 °F - 35.6 °F 25% 29.95 in 10.0 mi East 8.1 mph - N/A   Scattered Clouds
4:50 PM 75.2 °F - 37.4 °F 25% 29.94 in 10.0 mi ESE 6.9 mph - N/A   Scattered Clouds
5:47 PM 73.4 °F - 39.2 °F 29% 29.92 in 10.0 mi SSE 9.2 mph - N/A   Mostly Cloudy
6:50 PM 69.8 °F - 33.8 °F 27% 29.91 in 10.0 mi South 20.7 mph 28.8 mph N/A   Mostly Cloudy
7:47 PM 68.0 °F - 37.4 °F 33% 29.92 in 10.0 mi North - - N/A   Mostly Cloudy
7:50 PM 68.0 °F - 39.2 °F 35% 29.92 in 10.0 mi West 9.2 mph - N/A   Mostly Cloudy
8:47 PM 64.4 °F - 37.4 °F 37% 29.91 in 10.0 mi NNW 5.8 mph - N/A   Mostly Cloudy
9:47 PM 62.6 °F - 37.4 °F 39% 29.90 in 10.0 mi West 5.8 mph - N/A   Mostly Cloudy
10:47 PM 62.6 °F - 37.4 °F 39% 29.90 in 10.0 mi NNW 5.8 mph - N/A   Mostly Cloudy
11:15 PM 60.8 °F - 35.6 °F 39% 29.90 in 10.0 mi WNW 8.1 mph - N/A   Clear
11:35 PM 60.8 °F - 35.6 °F 39% 29.89 in 10.0 mi NW 6.9 mph - N/A   Clear
11:55 PM 60.8 °F - 35.6 °F 39% 29.89 in 10.0 mi NW 8.1 mph - N/A   Clear